Flag for Australia Weather past 2 weeks in Hobart, Tasmania, Australia

Now
50 °F

Light rain. Partly sunny.


Feels Like: 43 °F
Forecast: 45 / 56 °F
Wind: 21 mph from Northwest

Location: Hobart Airport

Current Time: Jul 29, 2014 at 1:08:05 PM

Latest Report: Jul 29, 2014 at 12:30 PM


Visibility: N/A

Pressure: 29.24 "Hg

Humidity: 82%

Dew point: 45 °F

Location of HobartLocation

Historic Weather in Hobart — Graph

°F

Hobart temperature yesterday

Maximum temperature yesterday: 61 °F (at 1:00 PM)
Minimum temperature yesterday: 48 °F (at 1:30 AM)
Average temperature yesterday: 55 °F

Past Weeks' High & Low Weather Summary

 TemperatureHumidityPressure
High61 °F (Jul 28, 1:00 PM)100% (Jul 14, 8:00 PM)30.42 "Hg (Jul 14, 8:00 PM)
Low34 °F (Jul 21, 7:00 AM)29% (Jul 28, 3:30 PM)29.24 "Hg (Jul 29, 6:30 AM)
Average47 °F78%30.01 "Hg
* Reported Jul 14 11:00 AM — Jul 29 11:05 AM, Hobart, Weather by CustomWeather, © 2014

Note: Actual official high and low records may vary slightly from our data, if they occured in-between our weather recording intervals... More about our weather records

Advertising

Hobart weather history for previous 24 hours

 ConditionsComfort  
Time TempWeatherWind HumidityBarometerVisibility
11:05 AM
Jul 29
54 °FRain showers. Broken clouds.31 mph63%29.24 "Hg4 mi
10:00 AM55 °FSprinkles. Broken clouds.15 mph72%29.24 "HgN/A
9:30 AM54 °FScattered showers. Partly sunny.7 mph77%29.24 "HgN/A
9:00 AM52 °FSprinkles. Broken clouds.10 mph88%29.24 "HgN/A
8:30 AM52 °FRain showers. Partly sunny.16 mph88%29.24 "Hg4 mi
8:00 AM50 °FSprinkles. Partly sunny.8 mph88%29.27 "Hg5 mi
7:00 AM54 °FSprinkles. Broken clouds.16 mph72%29.30 "HgN/A
6:30 AM54 °FLight rain. Partly sunny.22 mph67%29.24 "HgN/A
6:00 AM55 °FPassing clouds.24 mph59%29.27 "HgN/A
5:30 AM54 °FPassing clouds.18 mph58%29.30 "HgN/A
5:00 AM52 °FPassing clouds.9 mph62%29.33 "HgN/A
4:30 AM52 °FPassing clouds.9 mph62%29.33 "HgN/A
4:00 AM50 °FPassing clouds.6 mph71%29.36 "HgN/A
3:00 AM52 °FPassing clouds.13 mph62%29.39 "HgN/A
2:30 AM52 °FPartly cloudy.14 mph62%29.42 "HgN/A
2:00 AM52 °FPassing clouds.15 mph62%29.42 "HgN/A
1:30 AM48 °FPassing clouds.15 mph71%29.45 "HgN/A
1:00 AM50 °FClear.8 mph67%29.47 "Hg10 mi
12:30 AM52 °FClear.10 mph62%29.47 "Hg10 mi
12:00 AM52 °FPassing clouds.10 mph62%29.50 "HgN/A
11:30 PM
Jul 28
52 °FPassing clouds.10 mph62%29.50 "HgN/A
11:00 PM54 °FPassing clouds.12 mph54%29.50 "HgN/A
10:30 PM54 °FPassing clouds.10 mph54%29.53 "HgN/A
10:00 PM54 °FPassing clouds.17 mph58%29.53 "HgN/A
9:30 PM54 °FPassing clouds.14 mph54%29.53 "HgN/A
9:00 PM52 °FPassing clouds.15 mph62%29.53 "HgN/A
8:30 PM54 °FPassing clouds.17 mph54%29.56 "HgN/A
8:00 PM52 °FPassing clouds.9 mph62%29.56 "HgN/A
7:30 PM55 °FPassing clouds.6 mph51%29.59 "HgN/A
7:00 PM55 °FPassing clouds.17 mph47%29.59 "HgN/A
6:30 PM57 °FPassing clouds.12 mph41%29.56 "HgN/A
6:00 PM55 °FPassing clouds.6 mph44%29.56 "HgN/A
5:30 PM54 °FPassing clouds.7 mph54%29.56 "HgN/A
5:00 PM57 °FPassing clouds.10 mph41%29.56 "HgN/A
4:30 PM59 °FPassing clouds.9 mph36%29.56 "HgN/A
4:00 PM59 °FPartly sunny.15 mph31%29.56 "HgN/A
3:30 PM61 °FPartly sunny.17 mph29%29.56 "HgN/A
3:00 PM61 °FPartly sunny.18 mph31%29.59 "HgN/A
2:30 PM61 °FPartly sunny.21 mph34%29.59 "HgN/A
2:00 PM61 °FPartly sunny.22 mph36%29.59 "HgN/A
1:30 PM61 °FSunny.23 mph34%29.59 "HgN/A
1:00 PM61 °FPartly sunny.22 mph36%29.62 "HgN/A
Weather by CustomWeather, © 2014

See weather overviewHow to use our weather pages